Regional Weather Roundup
Issued by NWS

Home | Current Version | Previous Version | Graphics & Text | Print | Product List | Glossary On
Versions: 1 2 3 4 5 6 7 8 9 10 11 12 13 14 15 16 17 18 19 20 21 22 23 24 25 26 27 28 29 30 31 32 33 34 35 36 37 38 39 40 41 42 43 44 45 46 47 48 49 50
000
ASUS43 KOAX 231902
RWRNE

WEATHER ROUNDUP FOR NEBRASKA
NATIONAL WEATHER SERVICE OMAHA NE
200 PM CDT WED APR 23 2014

NOTES: SATELLITE DATA IS BEING USED TO AUGMENT CLOUD COVER ABOVE
       12000 FEET.
       "FAIR" INDICATES FEW OR NO CLOUDS BELOW 12,000 FEET WITH NO
       SIGNIFICANT WEATHER AND/OR OBSTRUCTIONS TO VISIBILITY.

  * THESE STATIONS DO NOT REPORT WEATHER SUCH AS RAIN...SNOW OR FOG.

NEZ001>004-019>022-054>056-232000-
NEBRASKA PANHANDLE

CITY           SKY/WX    TMP DP  RH WIND       PRES   REMARKS
SCOTTSBLUFF    SUNNY     66  22  18 NW35G46   29.66R
ALLIANCE       PTSUNNY   67  22  18 NW26G41   29.63R
CHADRON        CLOUDY    68  27  21 W23G38    29.61S
KIMBALL        SUNNY     65  25  22 N22G30    29.65R
SIDNEY         SUNNY     69  29  22 NW23G30   29.66R
$$

NEZ057>060-069>072-079>082-232000-
SOUTHWEST NEBRASKA

CITY           SKY/WX    TMP DP  RH WIND       PRES   REMARKS
NORTH PLATTE   CLOUDY    72  44  36 N14       29.56R
IMPERIAL       PTSUNNY   76  39  26 N24G33    29.57F
LEXINGTON        N/A     78  47  32 S12G25    29.53F
MCCOOK         CLOUDY    79  44  28 W14G23    29.54S
OGALLALA       PTSUNNY   74  36  25 N17G24    29.59F
$$

NEZ005>010-023>029-035>040-094-232000-
NORTH CENTRAL NEBRASKA

CITY           SKY/WX    TMP DP  RH WIND       PRES   REMARKS
VALENTINE      CLOUDY    74  36  25 W20       29.51S
AINSWORTH      CLOUDY    73  41  32 W17       29.53S
BROKEN BOW     SUNNY     77  48  35 S17G26    29.53F
O`NEILL        PTSUNNY   74  41  30 S22G32    29.55F
ORD            MOSUNNY   75  46  35 S23G39    29.54F
$$

NEZ041-046>049-061>064-073>077-083>087-232000-
SOUTH CENTRAL NEBRASKA

CITY           SKY/WX    TMP DP  RH WIND       PRES   REMARKS
GRAND ISLAND   MOSUNNY   75  47  36 S24G40    29.61F
AURORA         PTSUNNY   70  46  41 S26G38    29.63F
HASTINGS       PTSUNNY   70  45  40 S17G32    29.59F
HEBRON         CLOUDY    68  46  44 S24G36    29.65F
HOLDREGE       PTSUNNY   80  46  30 S29G43    29.55F
KEARNEY *      PTSUNNY   73  48  40 S26G32    29.57F
YORK           PTSUNNY   66  45  45 S32G38    29.64F
$$

NEZ011>018-030>034-042>045-232000-
NORTHEAST NEBRASKA

CITY           SKY/WX    TMP DP  RH WIND       PRES   REMARKS
NORFOLK        PTSUNNY   68  43  40 SE29G36   29.64F
ALBION         MOSUNNY   70  42  36 S24G33    29.61S
BLAIR          CLOUDY    53  42  66 SE23G37   29.71F
COLUMBUS *     PTSUNNY   64  45  48 SE21G33   29.67F
FREMONT        LGT RAIN  54  44  70 SE21G29   29.70S
TEKAMAH        CLOUDY    60  43  53 SE33G41   29.74F
$$

NEZ050>053-065>068-078-088>093-232000-
SOUTHEAST NEBRASKA

CITY           SKY/WX    TMP DP  RH WIND       PRES   REMARKS
LINCOLN        CLOUDY    62  45  53 S23G33    29.69F
OMAHA EPPLEY   LGT RAIN  52  43  71 SE31G39   29.71F
BEATRICE       LGT RAIN  56  46  69 SE20G29   29.69S
FALLS CITY     CLOUDY    56  44  64 E13       29.83
NEBRASKA CITY  CLOUDY    56  44  65 SE23G30   29.77F
PLATTSMOUTH    CLOUDY    58  41  53 SE21G33   29.77F
$$

NEZ044-045-051>053-067-232000-
OMAHA AREA

CITY           SKY/WX    TMP DP  RH WIND       PRES   REMARKS
OMAHA EPPLEY   LGT RAIN  52  43  71 SE31G39   29.71F
BLAIR          CLOUDY    53  42  66 SE23G37   29.71F
FREMONT        LGT RAIN  54  44  70 SE21G29   29.70S
MILLARD        CLOUDY    52  44  75 SE17G25   29.71F
OFFUTT AFB     LGT RAIN  53  48  83 SE28G35   29.73F
PLATTSMOUTH    CLOUDY    58  41  53 SE21G33   29.77F
WAHOO          CLOUDY    56  43  60 SE23G30   29.70F
$$



USA.gov is the U.S. government's official web portal to all federal, state and local government web resources and services.